Total_Precipitation_Accumulation
0.25 0.29 0.38 0.52 0.46 0.32 0.19 0.07 0.04 0.07 0.08 0.06 0.06 0.07 0.09 0.12 0.20 0.33 0.32 0.28 0.25 0.32 0.54 0.84 1.06 1.11 1.16 1.07 0.90 0.78 0.76 0.82 0.92 0.99 1.04 1.15 1.17 1.06 1.05 1.05 1.15 1.26 1.43 1.38 1.27 1.10 0.90 0.76 0.61
0.25 0.38 0.59 0.68 0.47 0.26 0.13 0.07 0.06 0.07 0.08 0.09 0.09 0.09 0.12 0.17 0.18 0.22 0.32 0.40 0.36 0.41 0.63 0.82 1.09 1.13 1.15 1.09 0.93 0.84 0.80 0.86 0.95 1.00 1.06 1.14 1.16 1.12 1.16 1.12 1.12 1.22 1.36 1.25 1.10 1.02 0.81 0.63 0.53
0.33 0.54 0.82 0.71 0.44 0.26 0.12 0.07 0.07 0.07 0.08 0.11 0.15 0.16 0.21 0.27 0.24 0.29 0.38 0.49 0.55 0.59 0.76 1.01 1.18 1.19 1.20 1.14 1.04 0.98 0.95 0.98 1.04 1.08 1.16 1.19 1.23 1.22 1.26 1.17 1.08 1.08 1.09 1.02 0.91 0.82 0.70 0.56 0.50
0.51 0.83 0.94 0.71 0.37 0.17 0.12 0.09 0.09 0.10 0.10 0.12 0.19 0.29 0.35 0.33 0.30 0.36 0.46 0.54 0.69 0.79 0.94 1.22 1.42 1.39 1.34 1.26 1.17 1.15 1.12 1.10 1.11 1.14 1.24 1.29 1.35 1.33 1.27 1.11 0.97 0.88 0.88 0.93 0.88 0.74 0.64 0.55 0.50
0.79 1.07 0.95 0.62 0.31 0.15 0.10 0.11 0.11 0.13 0.13 0.14 0.22 0.38 0.51 0.45 0.44 0.53 0.59 0.66 0.81 0.92 1.11 1.40 1.63 1.65 1.51 1.42 1.36 1.34 1.31 1.31 1.27 1.22 1.30 1.38 1.40 1.36 1.26 1.02 0.84 0.73 0.76 0.87 0.89 0.85 0.71 0.62 0.52
1.13 1.13 0.89 0.55 0.26 0.16 0.11 0.12 0.14 0.17 0.17 0.20 0.28 0.46 0.65 0.67 0.72 0.83 0.86 0.85 1.00 1.07 1.26 1.56 1.82 1.75 1.65 1.66 1.63 1.60 1.58 1.52 1.45 1.42 1.51 1.52 1.46 1.35 1.19 1.03 0.87 0.75 0.73 0.83 0.84 0.87 0.79 0.65 0.57
1.18 0.99 0.70 0.43 0.26 0.20 0.15 0.14 0.17 0.19 0.22 0.26 0.29 0.56 0.79 0.98 1.10 1.19 1.26 1.27 1.28 1.37 1.55 1.77 1.88 1.78 1.69 1.67 1.70 1.74 1.77 1.77 1.66 1.55 1.56 1.53 1.45 1.32 1.17 0.97 0.92 0.87 0.81 0.83 0.84 0.78 0.80 0.71 0.60
1.18 1.13 0.69 0.42 0.31 0.25 0.21 0.20 0.18 0.22 0.28 0.30 0.38 0.64 0.88 1.10 1.39 1.65 1.70 1.87 1.85 1.87 1.93 2.03 2.13 2.03 1.85 1.69 1.76 1.79 1.79 1.75 1.73 1.61 1.38 1.31 1.24 1.17 1.13 0.88 0.85 0.86 0.85 0.78 0.78 0.80 0.79 0.69 0.56
1.27 1.31 0.76 0.41 0.34 0.29 0.28 0.30 0.25 0.23 0.33 0.43 0.48 0.63 0.92 1.28 1.70 2.18 2.26 2.39 2.44 2.38 2.41 2.35 2.40 2.33 2.25 2.07 1.93 1.95 1.84 1.73 1.71 1.60 1.34 1.23 1.31 1.21 0.98 0.73 0.70 0.74 0.77 0.77 0.76 0.73 0.73 0.58 0.49
1.39 1.15 0.60 0.33 0.33 0.35 0.36 0.39 0.37 0.35 0.42 0.52 0.66 0.72 1.13 1.66 2.06 2.35 2.47 2.42 2.60 2.57 2.63 2.60 2.60 2.58 2.57 2.27 2.13 2.15 1.98 1.78 1.64 1.48 1.42 1.31 1.29 1.28 1.02 0.84 0.71 0.75 0.73 0.75 0.83 0.82 0.70 0.54 0.45
1.12 0.77 0.50 0.40 0.38 0.42 0.46 0.47 0.48 0.51 0.53 0.55 0.64 0.77 1.18 1.76 2.30 2.45 2.67 2.65 2.71 2.89 2.89 2.82 2.79 2.81 2.81 2.65 2.28 2.17 2.02 1.96 1.84 1.58 1.51 1.44 1.44 1.40 1.23 1.08 0.95 0.91 0.79 0.78 0.82 0.85 0.68 0.55 0.50
0.92 0.61 0.56 0.56 0.49 0.55 0.57 0.56 0.54 0.56 0.56 0.54 0.65 0.78 1.13 1.60 2.09 2.49 2.70 2.83 2.71 2.95 3.08 2.98 2.93 2.90 2.91 2.85 2.58 2.30 2.09 1.94 1.84 1.67 1.56 1.58 1.54 1.42 1.27 1.12 1.05 0.98 0.86 0.82 0.81 0.75 0.65 0.55 0.51
0.82 0.63 0.62 0.64 0.63 0.68 0.71 0.65 0.62 0.58 0.56 0.62 0.86 1.07 1.25 1.51 1.84 2.37 2.75 2.86 2.79 2.81 3.13 3.19 3.11 3.00 2.89 2.90 2.79 2.49 2.21 1.93 1.86 1.86 1.71 1.56 1.49 1.37 1.32 1.18 1.16 1.08 0.95 0.91 0.86 0.79 0.74 0.67 0.59
0.69 0.64 0.70 0.76 0.78 0.78 0.88 0.76 0.73 0.69 0.66 0.84 1.05 1.19 1.40 1.62 1.83 2.26 2.63 2.84 2.75 2.67 2.97 3.21 3.36 3.29 3.08 2.84 2.72 2.58 2.39 2.21 2.13 2.01 1.87 1.77 1.64 1.53 1.39 1.26 1.20 1.15 1.03 0.93 0.92 0.86 0.83 0.78 0.71
0.79 0.86 0.88 0.89 0.86 0.84 0.97 0.99 0.77 0.74 0.82 0.92 1.04 1.22 1.41 1.66 2.00 2.31 2.48 2.72 2.90 2.78 2.92 3.14 3.40 3.59 3.46 3.18 2.95 2.80 2.61 2.44 2.33 2.22 2.19 2.08 1.89 1.72 1.63 1.41 1.25 1.19 1.18 1.17 1.12 1.08 0.95 0.85 0.78
1.25 1.21 1.09 0.90 0.84 0.84 1.12 1.14 0.78 0.73 0.86 0.93 1.05 1.24 1.40 1.59 1.91 2.24 2.49 2.73 3.06 3.13 3.15 3.31 3.35 3.57 3.68 3.56 3.29 3.01 2.82 2.64 2.42 2.23 2.23 2.21 2.08 1.94 1.85 1.69 1.47 1.38 1.39 1.36 1.28 1.17 1.11 0.95 0.82
1.41 1.17 0.89 0.79 0.79 0.89 1.05 1.02 0.87 0.79 0.81 0.92 1.05 1.21 1.41 1.51 1.70 2.00 2.33 2.71 3.05 3.25 3.39 3.58 3.56 3.47 3.63 3.80 3.69 3.30 3.04 2.83 2.66 2.41 2.27 2.30 2.27 2.14 1.98 1.78 1.66 1.66 1.61 1.49 1.40 1.27 1.26 1.20 1.01
0.92 0.74 0.62 0.64 0.67 0.76 0.88 0.85 0.89 0.92 0.87 0.85 0.97 1.11 1.33 1.39 1.46 1.69 2.05 2.57 3.02 3.29 3.40 3.53 3.66 3.72 3.81 3.96 4.07 3.83 3.46 3.14 2.94 2.76 2.53 2.43 2.50 2.51 2.33 1.99 1.84 1.84 1.83 1.74 1.61 1.53 1.43 1.37 1.35
0.73 0.67 0.58 0.47 0.50 0.68 0.76 0.82 0.93 1.00 0.89 0.86 0.96 1.06 1.18 1.24 1.33 1.50 1.79 2.22 2.67 3.16 3.27 3.29 3.40 3.60 3.75 3.87 3.89 3.77 3.45 3.29 3.14 2.92 2.79 2.71 2.60 2.61 2.69 2.41 2.16 2.09 2.03 1.99 1.93 1.90 1.82 1.63 1.59
0.84 0.79 0.66 0.56 0.55 0.77 0.80 0.88 0.89 0.95 0.96 0.90 0.90 0.96 1.01 1.15 1.31 1.46 1.69 1.98 2.24 2.71 3.06 3.12 3.20 3.29 3.38 3.43 3.65 3.77 3.65 3.38 3.28 3.20 3.02 2.84 2.75 2.69 2.72 2.77 2.57 2.28 2.21 2.19 2.19 2.10 1.95 1.88 1.84
0.87 0.70 0.66 0.77 0.81 0.92 0.94 1.04 0.93 0.92 0.93 0.84 0.82 0.88 0.88 1.01 1.26 1.40 1.55 1.87 2.07 2.42 2.84 3.00 3.12 3.25 3.22 3.38 3.83 4.07 4.09 3.79 3.49 3.29 3.21 3.05 2.88 2.82 2.74 2.69 2.72 2.60 2.43 2.32 2.32 2.39 2.36 2.21 2.10
0.94 0.55 0.61 0.84 1.19 1.32 1.05 1.32 1.05 0.97 0.90 0.85 0.82 0.88 0.89 0.94 1.14 1.26 1.35 1.68 1.93 2.15 2.49 2.72 3.01 3.26 3.38 3.46 3.68 3.75 3.59 3.41 3.11 3.02 3.03 3.08 3.07 2.89 2.81 2.79 2.76 2.73 2.63 2.47 2.43 2.50 2.55 2.58 2.48
0.82 0.60 0.72 0.94 1.29 1.39 0.95 1.17 1.06 0.94 0.95 0.94 0.90 0.98 1.00 0.97 1.09 1.27 1.36 1.49 1.65 1.96 2.25 2.43 2.62 2.91 3.18 3.33 3.49 3.63 3.47 3.22 3.11 3.10 3.09 3.05 3.09 3.01 2.91 2.84 2.83 2.82 2.75 2.67 2.61 2.60 2.62 2.62 2.60
0.85 1.03 1.11 1.18 1.70 1.80 0.92 0.98 1.03 1.01 0.99 0.91 0.89 0.95 0.97 0.99 1.09 1.22 1.29 1.40 1.50 1.74 2.08 2.25 2.40 2.57 2.86 3.07 3.26 3.46 3.36 3.12 2.88 2.88 2.94 2.90 2.89 2.84 2.79 2.82 2.77 2.74 2.71 2.62 2.58 2.58 2.58 2.60 2.52
1.30 1.85 2.31 2.26 2.16 1.43 0.71 0.90 1.13 0.96 0.86 0.88 0.94 0.93 0.94 0.95 1.02 1.13 1.23 1.40 1.50 1.65 1.81 1.94 2.02 2.15 2.40 2.67 2.84 3.04 3.14 3.11 2.90 2.65 2.67 2.67 2.61 2.54 2.48 2.55 2.61 2.61 2.58 2.58 2.56 2.53 2.44 2.46 2.49
1.29 1.55 1.90 1.71 1.18 0.82 0.70 0.94 1.05 0.84 0.83 0.85 0.89 0.90 0.88 0.92 0.99 1.04 1.12 1.29 1.45 1.59 1.62 1.65 1.73 1.85 1.96 2.10 2.28 2.45 2.53 2.72 2.78 2.65 2.48 2.46 2.39 2.32 2.32 2.37 2.45 2.53 2.57 2.53 2.56 2.52 2.40 2.35 2.32
1.25 1.29 1.12 1.44 1.02 0.86 0.85 0.87 0.89 0.73 0.77 0.79 0.79 0.84 0.88 0.91 0.92 0.99 1.11 1.22 1.32 1.44 1.50 1.52 1.59 1.66 1.69 1.81 1.93 2.14 2.16 2.19 2.31 2.36 2.37 2.35 2.25 2.18 2.23 2.35 2.35 2.34 2.40 2.40 2.39 2.39 2.26 2.17 2.13
1.05 1.10 1.34 1.90 1.64 1.17 0.82 0.79 1.01 0.85 0.83 0.86 0.82 0.85 0.90 0.90 0.91 1.02 1.15 1.25 1.30 1.40 1.46 1.43 1.48 1.54 1.60 1.65 1.77 1.91 1.98 2.04 2.07 2.07 2.07 2.12 2.09 2.00 2.01 2.11 2.22 2.21 2.20 2.27 2.33 2.22 2.08 2.02 1.90
1.01 1.21 1.44 1.54 1.34 1.30 1.01 1.01 1.02 0.86 0.80 0.83 0.80 0.82 0.86 0.87 0.91 1.05 1.17 1.29 1.34 1.36 1.41 1.42 1.38 1.41 1.48 1.53 1.58 1.67 1.74 1.82 1.93 1.92 1.87 1.86 1.89 1.85 1.81 1.88 1.94 1.95 1.93 1.96 2.06 2.07 2.01 1.97 1.89
0.85 0.96 1.21 1.69 1.30 1.02 1.07 1.10 0.88 0.75 0.71 0.75 0.76 0.76 0.77 0.80 0.87 0.99 1.08 1.11 1.19 1.27 1.38 1.45 1.38 1.38 1.35 1.43 1.51 1.53 1.58 1.63 1.73 1.76 1.77 1.73 1.74 1.75 1.72 1.75 1.81 1.81 1.79 1.78 1.80 1.80 1.81 1.86 1.86